SL-14 DEB, 45280

Orbit data source: Space-Track

SL-14 DEB, 45280 is space debris in LEO originally from a launch on Thu, 15 Aug 1991 UTC launched from the Plesetsk Missile And Space Complex (PKMTR). Debris objects in space refer to the collection of defunct objects orbiting the Earth. Examples of debris include non-operational satellites, rocket bodies, and fragments generated from explosions, collisions, or faulty payload assembly.

Loading next visibility...
Identifier
45280, 1991-056S
Orbit
LEO
Last TLE update
1 day ago
Origin
Manufacturer
Unknown
Mission
Spacecraft
Bus & Motor
Unknown
Mass
Unknown
Launch date (UTC)
1991-08-15 (34 years ago)
Launch vehicle
Unknown
Launch site
Plesetsk Missile And Space Complex (PKMTR)
Object type
Payload
Rocket body
Debris
Shape & HBR
Unknown
Radar Cross Section
Small (<0.1 m²)

Expand to show TLE details & history

TLE from 1 day ago
0 SL-14 DEB
1 45280U 91056S   25128.25529370  .00001470  00000-0  35798-2 0  9997
2 45280  82.5871  70.5625 0011665 256.9679 103.0144 13.20838022251639
Epoch: 2025-05-08T06:07Z
Definitive object data (Epoch: 2025-05-08T06:07:37.375Z)
Latitude
0.00001°
Longitude
112.32836°
Altitude
1,186.33 km
Speed
7.26 km/s
True Right ascension
04h 42m 15s
True Declination
0° 00' 00"
Sunlit
Object was in daylight at TLE epoch
Visualization TLE readout
Latitude
3.26452°
Longitude
112.05353°
Altitude
1,186.807 km
Speed
7.259 km/s
Apparent Right ascension
03h 36m 42s
Apparent Declination
-17° 18' 55"
Sunlit
Object is in daylight
Visualization observer readout
Local Sidereal Time
13:55:22
Azimuth
308.542° NW
Elevation
-58.517°
Doppler factor
1
Orbital elements
Apogee altitude
1,187.574 km
Perigee altitude
1,169.944 km
Semi-major axis
7,556.896 km
Eccentricity
0.0011665
Inclination
82.5871°
RAAN
70.5625°
Arg. of periapsis
256.9679°
True anomaly
103.14459°
Mean anomaly
103.0144°
Eccentric anomaly
103.0795°
Mean motion
3.30391 °/min
BSTAR
0.0035798
Orbital period
108.96 mins
Loading maneuver chart data...
Loading SW <> Apogee altitude chart data...
Loading historical data...
Loading historical data...
Loading historical data...
Loading historical data...
Loading historical data...
Loading historical data...
Loading historical data...

SL-14 DEB Visibility forecast

Observer location: undefined°, undefined°

Span
Click to sort rows by Start time (UTC) header in descending order
Start Az.
Max El. time (UTC)
Max El. Az.
Max El.
End time (UTC)
End Az.
9 mins2025-05-09 06:21:38.841Z23.533° NE2025-05-09 06:26:38.841Z67.95° E18.177°2025-05-09 06:30:38.841Z104.624° ESE
12 mins2025-05-09 08:11:38.841Z347.606° N2025-05-09 08:17:38.841Z231.038° WSW43.665°2025-05-09 08:23:38.841Z182.35° SSW
12 mins2025-05-09 20:24:38.841Z170.544° S2025-05-09 20:30:38.841Z81.078° E42.221°2025-05-09 20:36:38.841Z14.705° NNE
9 mins2025-05-09 22:16:38.841Z250.596° W2025-05-09 22:20:38.841Z289.337° WNW20.791°2025-05-09 22:25:38.841Z336.846° NNW
|